FW6569 Weather Reports


time (UTC)temp
F
wind
direction
speed
knots
gust
knots
rain 1hr
in
rain 24hr
in
rain mn
in
humidity
%
barometer
mb
20260505022521 69 204 7.8 11.3 0.00 0.00 0.00 55 1006.8
20260505021521 69 199 7.8 12.2 0.00 0.00 0.00 55 1006.5
20260505020522 69 203 7.0 9.6 0.00 0.00 0.00 56 1006.3
20260505015521 69 212 7.0 10.4 0.00 0.00 0.00 56 1006.2
20260505014522 69 188 6.1 8.7 0.00 0.00 0.00 56 1005.9
20260505013601 70 203 7.0 10.4 0.00 0.00 0.00 55 1005.7
20260505012522 70 196 7.0 10.4 0.00 0.00 0.00 54 1005.6
20260505011522 70 200 7.8 10.4 0.00 0.00 0.00 54 1005.5
20260505010522 70 211 6.1 7.8 0.00 0.00 0.00 53 1005.5
20260505005522 71 201 5.2 9.6 0.00 0.00 0.00 52 1005.4
20260505004522 71 199 6.1 7.8 0.00 0.00 0.00 51 1005.5
20260505003522 72 198 6.1 7.8 0.00 0.00 0.00 49 1005.6
20260505002522 72 195 7.0 10.4 0.00 0.00 0.00 49 1005.5
20260505001522 72 201 7.0 12.2 0.00 0.00 0.00 48 1005.6
20260505000522 73 208 9.6 14.8 0.00 0.00 0.00 48 1005.7
20260504235522 73 207 8.7 11.3 0.00 0.00 0.00 48 1005.7
20260504234522 74 211 7.0 9.6 0.00 0.00 0.00 47 1005.8
20260504233522 74 212 9.6 13.9 0.00 0.00 0.00 48 1006.1
20260504232522 74 204 8.7 13.9 0.00 0.00 0.00 49 1006.3
20260504231542 74 205 9.6 13.0 0.00 0.00 0.00 48 1006.4
20260504230542 74 221 7.0 10.4 0.00 0.00 0.00 49 1006.5
20260504225522 74 207 7.0 9.6 0.00 0.00 0.00 50 1006.6
20260504224522 75 208 7.8 10.4 0.00 0.00 0.00 49 1006.7
20260504223522 75 201 7.8 11.3 0.00 0.00 0.00 48 1006.8
20260504222522 75 206 10.4 16.5 0.00 0.00 0.00 47 1006.9
20260504221522 75 212 10.4 14.8 0.00 0.00 0.00 47 1007.0
20260504220522 75 200 13.0 16.5 0.00 0.00 0.00 45 1007.1
20260504215522 76 217 10.4 15.6 0.00 0.00 0.00 45 1007.0
20260504214522 76 212 12.2 16.5 0.00 0.00 0.00 44 1007.0
20260504213522 76 210 13.0 18.2 0.00 0.00 0.00 43 1007.0
20260504212522 77 216 10.4 18.2 0.00 0.00 0.00 41 1006.9
20260504211522 77 209 10.4 15.6 0.00 0.00 0.00 45 1006.9
20260504210522 76 204 7.0 12.2 0.00 0.00 0.00 49 1007.1
20260504205522 75 221 4.3 6.1 0.00 0.00 0.00 50 1007.5
20260504204522 77 226 4.3 7.8 0.00 0.00 0.00 47 1007.7
20260504203522 78 249 3.5 6.1 0.00 0.00 0.00 45 1007.9
20260504202522 78 242 6.1 11.3 0.00 0.00 0.00 44 1008.1
20260504201522 77 233 5.2 7.8 0.00 0.00 0.00 46 1008.1
20260504200543 76 203 5.2 12.2 0.00 0.00 0.00 48 1008.2
20260504195522 77 210 7.0 12.2 0.00 0.00 0.00 50 1008.4
20260504194522 76 220 5.2 10.4 0.00 0.00 0.00 51 1008.6
20260504193522 75 201 7.0 10.4 0.00 0.00 0.00 53 1008.7
20260504192523 72 242 5.2 7.8 0.00 0.00 0.00 53 1008.8
20260504191522 72 222 3.5 7.0 0.00 0.00 0.00 59 1008.8
20260504190523 72 213 7.0 11.3 0.00 0.00 0.00 58 1009.0
20260504185522 71 218 6.1 7.8 0.00 0.00 0.00 62 1009.2
20260504184523 70 217 4.3 7.0 0.00 0.00 0.00 64 1009.4
20260504183543 68 216 3.5 5.2 0.00 0.00 0.00 66 1009.4
20260504182623 67 197 2.6 3.5 0.00 0.00 0.00 67 1009.4
20260504181523 67 199 6.1 7.8 0.00 0.00 0.00 67 1009.5
20260504180543 66 219 6.1 7.8 0.00 0.00 0.00 67 1009.7
20260504175523 67 223 4.3 8.7 0.00 0.00 0.00 67 1009.5
20260504174522 68 212 7.8 9.6 0.00 0.00 0.00 63 1009.2
20260504173523 68 224 8.7 10.4 0.00 0.00 0.00 62 1009.4
20260504172523 68 204 10.4 13.0 0.00 0.00 0.00 62 1009.3
20260504171523 68 210 8.7 13.0 0.00 0.00 0.00 64 1009.3
20260504170523 68 202 10.4 13.0 0.00 0.00 0.00 63 1009.2
20260504150523 63 210 7.8 9.6 0.00 0.00 0.00 68 1009.7
20260504140523 62 213 6.1 7.8 0.00 0.00 0.00 68 1009.9
20260504130523 58 175 4.3 6.1 0.00 0.00 0.00 73 1009.8
20260504110524 54 185 5.2 7.0 0.00 0.00 0.00 73 1010.1
20260504100523 55 196 7.0 11.3 0.00 0.00 0.00 66 1009.9
20260504081544 53 190 4.3 5.2 0.00 0.00 0.00 67 1010.8
20260504080524 53 189 4.3 5.2 0.00 0.00 0.00 66 1010.8
20260504050524 55 194 5.2 7.0 0.00 0.00 0.00 61 1012.7
20260504045524 55 188 5.2 7.0 0.00 0.00 0.00 61 1012.7
20260504044545 55 192 4.3 7.0 0.00 0.00 0.00 61 1012.7
20260504043524 55 188 5.2 6.1 0.00 0.00 0.00 60 1012.7
20260504042524 55 183 5.2 7.8 0.00 0.00 0.00 60 1012.6
20260504041525 55 193 5.2 6.1 0.00 0.00 0.00 60 1012.8
20260504040524 55 192 6.1 7.8 0.00 0.00 0.00 60 1012.9
20260504035545 55 198 5.2 7.0 0.00 0.00 0.00 60 1013.1
20260504034524 55 193 4.3 6.1 0.00 0.00 0.00 60 1013.2
20260504033524 55 183 5.2 7.0 0.00 0.00 0.00 59 1013.2
20260504032545 55 191 5.2 7.0 0.00 0.00 0.00 60 1013.3
20260504031544 55 193 4.3 6.1 0.00 0.00 0.00 60 1013.3
20260504030525 56 190 4.3 6.1 0.00 0.00 0.00 59 1013.4
20260504025525 56 203 4.3 6.1 0.00 0.00 0.00 58 1013.4
20260504024525 56 192 4.3 6.1 0.00 0.00 0.00 58 1013.4
20260504023525 57 194 5.2 7.0 0.00 0.00 0.00 57 1013.4